AirNav   Everest Fuels
 
 1482 users online  

31AZ Benson Airport
Benson, Arizona, USA

GOING TO BENSON?


FAA INFORMATION EFFECTIVE 09 SEPTEMBER 2021

Location

FAA Identifier: 31AZ
Lat/Long: 31-57-49.3000N 110-15-35.2610W
31-57.821667N 110-15.587683W
31.9636944,-110.2597947
(estimated)
Elevation: 3628 ft. / 1105.8 m (surveyed)
Variation: 12E (1985)
From city: 2 miles E of BENSON, AZ
Time zone: UTC -7 (year round; does not observe DST)
Zip code: 85602

Airport Operations

Airport use: Private use. Permission required prior to landing
Activation date: 02/1947
Control tower: no
ARTCC: ALBUQUERQUE CENTER
FSS: PRESCOTT FLIGHT SERVICE STATION
Attendance: UNATNDD
Wind indicator: yes
Segmented circle: no

Airport Communications

WX AWOS-3 at E95 (5 nm NW): 118.475 (520-265-5232)

Nearby radio navigation aids

VOR radial/distance  VOR name  Freq  Var
FHUr359/23.0LIBBY VOR/DME113.6013E
TUSr091/34.2TUCSON VORTAC116.0012E

Airport Services

Fuel available: 100 80
Airframe service: NONE
Powerplant service: NONE
Bottled oxygen: NONE
Bulk oxygen: NONE

Runway Information

Runway 8/26

Dimensions: 4800 x 140 ft. / 1463 x 43 m
Surface: dirt, in fair condition
RUNWAY 8  RUNWAY 26
Traffic pattern: leftleft
Runway end identifier lights: nono
Obstructions: pline, 300 ft. from runway, 6:1 slope to clear
5' BRUSH AT THR; 4' BANK; AND 5' FENCE 110' FROM W END.
none

Airport Ownership and Management from official FAA records

Ownership: Privately-owned
Owner: BEN A TAYLOR
BOX 54
BENSON, AZ 85602
Phone 602-586-3421
Manager: BEN A TAYLOR
BOX 54
BENSON, AZ 85602
Phone 602-586-3421

Airport Operational Statistics

Aircraft based on the field: 8
Single engine airplanes: 8
    
Aircraft operations: avg 58/month *
71% military
14% transient general aviation
14% local general aviation
* for 12-month period ending 05 October 1990

Additional Remarks

USE AT PILOTS OWN RISK--PRIOR CONTACT RECOMMENDED.
GOPHER HOLES, SLICK & MUDDY WHEN WET
FOR CD CTC ALBUQUERQUE ARTCC AT 505-856-4861.

Instrument Procedures

There are no published instrument procedures at 31AZ.

Some nearby airports with instrument procedures:

KFHU - Sierra Vista Municipal Airport-Libby Army Airfield (23 nm S)
P33 - Cochise County Airport (25 nm NE)
KDMA - Davis Monthan Air Force Base (34 nm W)
KTUS - Tucson International Airport (36 nm W)
KOLS - Nogales International Airport (44 nm SW)
 
Loc | Ops | Rwys | IFR | FBO | Links
Com | Nav | Svcs | Stats | Notes
Area around 31AZ (Benson Airport)
 
Road maps at: MapQuest Bing Google
 
Aerial photo
No photo
 
Sectional chart

 
Airport distance calculator
Flying to Benson Airport? Find the distance to fly.

From to 31AZ

Sunrise and sunset
Times for 24-Sep-2021
 Local
(UTC-7)
 Zulu
(UTC)
Morning civil twilight05:4712:47
Sunrise06:1213:12
Sunset18:1501:15
Evening civil twilight18:3901:39

Current date and time
Zulu (UTC)  24-Sep-2021 18:47:17
Local (UTC-7)  24-Sep-2021 11:47:17
 
METAR
KFHU 
22nm S 
241758Z 09003KT 10SM CLR 22/12 A3018 RMK AO2A SLP160 T02230118 10226 20140 PWINO $
KALK 
23nm S 
241756Z AUTO 07005KT 10SM CLR 23/12 A3018 RMK AO2 SLP142 T02280122 10228 20128 50001
KDMA 
33nm W 
241758Z AUTO 25003KT 10SM CLR 27/12 A3005 RMK AO2 SLP140 T02710123 10272 20169 50003 $
KTUS 
37nm W 
241753Z VRB03KT 10SM CLR 28/11 A3007 RMK AO2 SLP141 T02780111 10278 20178 50003
TAF
KFHU 
22nm S 
241400Z 2414/2520 19009KT 9999 BKN080 621005 QNH3010INS BECMG 2417/2418 32009KT 9999 SCT070 SCT120 QNH3011INS TEMPO 2421/2501 BKN070 TEMPO 2501/2502 VCTS BKN070CB BECMG 2502/2503 22009KT 9999 VCTS SCT070CB SCT150 QNH3013INS TEMPO 2503/2506 VRB15G25KT -TSRA BKN070CB BECMG 2506/2507 22009KT 9999 NSW BKN150 QNH3017INS TX28/2423Z TN16/2511Z
NOTAMs
Click for the latest NOTAMs
NOTAMs are issued by the DoD/FAA and will open in a separate window not controlled by AirNav.

 

 
 

Would you like to see your business listed on this page?

 If your business provides an interesting product or service to pilots, flight crews, aircraft, or users of the Benson Airport, you should consider listing it here.  To start the listing process, click on the button below
 
Add a business
 

Other Pages about Benson Airport

Update a link
 
Copyright © AirNav, LLC. All rights reserved. Privacy Policy  Contact